| time (UTC) | temp F | wind direction | speed MPH | gust MPH | rain 1hr in | rain 24hr in | rain mn in | humidity % | barometer mb |
| 20260905044822 | 55 | 70 | 2.0 | 5.0 | 0.00 | 0.24 | 0.24 | 94 | 1015.9 |
| 20260905043353 | 55 | 71 | 1.0 | 5.0 | 0.00 | 0.25 | 0.24 | 94 | 1015.7 |
| 20260905041839 | 55 | 129 | 2.0 | 4.0 | 0.00 | 0.25 | 0.24 | 93 | 1015.7 |
| 20260905040351 | 55 | 125 | 2.0 | 4.0 | 0.00 | 0.25 | 0.24 | 92 | 1015.6 |
| 20260905033344 | 55 | 121 | 2.0 | 4.0 | 0.00 | 0.27 | 0.24 | 91 | 1015.3 |
| 20260905031833 | 56 | 128 | 1.0 | 6.0 | 0.00 | 0.27 | 0.24 | 91 | 1015.1 |
| 20260905030323 | 56 | 132 | 4.0 | 7.0 | 0.00 | 0.27 | 0.24 | 90 | 1015.1 |
| 20260905024836 | 57 | 125 | 3.0 | 6.0 | 0.00 | 0.27 | 0.24 | 90 | 1015.0 |
| 20260905023326 | 57 | 107 | 5.0 | 10.0 | 0.00 | 0.32 | 0.24 | 89 | 1015.1 |
| 20260905021837 | 58 | 85 | 4.0 | 13.0 | 0.00 | 0.32 | 0.24 | 87 | 1014.9 |
| 20260905020348 | 59 | 80 | 8.0 | 13.0 | 0.00 | 0.32 | 0.24 | 86 | 1015.0 |
| 20260905014856 | 59 | 98 | 5.0 | 9.0 | 0.00 | 0.32 | 0.24 | 85 | 1014.9 |
| 20260905013322 | 60 | 109 | 3.0 | 9.0 | 0.00 | 0.34 | 0.24 | 85 | 1014.9 |
| 20260905011850 | 60 | 80 | 3.0 | 9.0 | 0.00 | 0.34 | 0.24 | 84 | 1014.7 |
| 20260905010321 | 60 | 116 | 2.0 | 10.0 | 0.00 | 0.34 | 0.24 | 83 | 1014.6 |
| 20260905004849 | 61 | 80 | 7.0 | 12.0 | 0.00 | 0.34 | 0.24 | 82 | 1014.6 |
| 20260905003337 | 62 | 72 | 3.0 | 10.0 | 0.00 | 0.34 | 0.24 | 82 | 1014.4 |
| 20260905001849 | 63 | 127 | 6.0 | 13.0 | 0.00 | 0.34 | 0.24 | 83 | 1014.3 |
| 20260905000340 | 62 | 119 | 3.0 | 9.0 | 0.00 | 0.34 | 0.24 | 86 | 1014.3 |
| 20260904234829 | 63 | 80 | 4.0 | 11.0 | 0.00 | 0.34 | 0.24 | 84 | 1014.2 |
| 20260904233357 | 63 | 98 | 7.0 | 13.0 | 0.00 | 0.36 | 0.24 | 86 | 1014.1 |
| 20260904231827 | 63 | 128 | 3.0 | 7.0 | 0.00 | 0.36 | 0.24 | 93 | 1013.9 |
| 20260904230341 | 61 | 105 | 2.0 | 8.0 | 0.00 | 0.36 | 0.24 | 93 | 1013.9 |
| 20260904224830 | 60 | 63 | 3.0 | 5.0 | 0.00 | 0.36 | 0.24 | 96 | 1014.0 |
| 20260904223322 | 59 | 36 | 1.0 | 4.0 | 0.01 | 0.38 | 0.24 | 95 | 1013.9 |
| 20260904221833 | 59 | 46 | 2.0 | 4.0 | 0.01 | 0.38 | 0.24 | 95 | 1013.9 |
| 20260904220344 | 59 | 80 | 3.0 | 6.0 | 0.02 | 0.38 | 0.24 | 97 | 1013.9 |
| 20260904214855 | 58 | 85 | 1.0 | 3.0 | 0.13 | 0.38 | 0.24 | 96 | 1013.9 |
| 20260904213348 | 57 | 90 | 2.0 | 4.0 | 0.12 | 0.45 | 0.23 | 95 | 1013.8 |
| 20260904211819 | 57 | 128 | 4.0 | 10.0 | 0.12 | 0.45 | 0.23 | 95 | 1013.8 |
| 20260904210330 | 57 | 189 | 1.0 | 11.0 | 0.11 | 0.44 | 0.22 | 93 | 1013.8 |
| 20260904204820 | 58 | 221 | 5.0 | 8.0 | 0.00 | 0.33 | 0.11 | 91 | 1013.5 |
| 20260904203332 | 59 | 172 | 7.0 | 11.0 | 0.00 | 0.40 | 0.11 | 89 | 1013.5 |
| 20260904201822 | 61 | 101 | 3.0 | 5.0 | 0.00 | 0.40 | 0.11 | 88 | 1013.2 |
| 20260904200329 | 60 | 347 | 2.0 | 7.0 | 0.00 | 0.40 | 0.11 | 92 | 1013.3 |
| 20260904194838 | 58 | 109 | 4.0 | 10.0 | 0.00 | 0.40 | 0.11 | 92 | 1013.3 |
| 20260904193349 | 58 | 15 | 3.0 | 10.0 | 0.00 | 0.40 | 0.11 | 93 | 1013.5 |
| 20260904191821 | 59 | 9 | 3.0 | 8.0 | 0.00 | 0.40 | 0.11 | 95 | 1013.4 |
| 20260904190333 | 58 | 11 | 5.0 | 9.0 | 0.00 | 0.40 | 0.11 | 96 | 1013.5 |
| 20260904184826 | 58 | 36 | 4.0 | 8.0 | 0.00 | 0.40 | 0.11 | 98 | 1013.5 |
| 20260904183334 | 57 | 341 | 2.0 | 6.0 | 0.00 | 0.41 | 0.11 | 97 | 1013.4 |
| 20260904181824 | 57 | 354 | 2.0 | 6.0 | 0.00 | 0.41 | 0.11 | 98 | 1013.3 |
| 20260904180354 | 57 | 330 | 2.0 | 4.0 | 0.00 | 0.41 | 0.11 | 98 | 1013.2 |
| 20260904174844 | 56 | 328 | 3.0 | 5.0 | 0.00 | 0.41 | 0.11 | 98 | 1013.1 |
| 20260904173335 | 56 | 329 | 3.0 | 4.0 | 0.00 | 0.51 | 0.11 | 98 | 1013.0 |
| 20260904171822 | 55 | 329 | 2.0 | 3.0 | 0.00 | 0.51 | 0.11 | 98 | 1012.9 |
| 20260904170332 | 55 | 332 | 2.0 | 5.0 | 0.00 | 0.51 | 0.11 | 98 | 1012.8 |
| 20260904164838 | 54 | 337 | 2.0 | 4.0 | 0.00 | 0.51 | 0.11 | 98 | 1012.7 |
| 20260904163325 | 55 | 342 | 0.0 | 3.0 | 0.00 | 0.51 | 0.11 | 98 | 1012.6 |
| 20260904161845 | 54 | 342 | 1.0 | 4.0 | 0.00 | 0.51 | 0.11 | 98 | 1012.6 |
| 20260904160354 | 54 | 345 | 2.0 | 4.0 | 0.00 | 0.51 | 0.11 | 98 | 1012.7 |
| 20260904154825 | 54 | 334 | 3.0 | 5.0 | 0.00 | 0.51 | 0.11 | 98 | 1012.5 |
| 20260904153333 | 53 | 337 | 1.0 | 4.0 | 0.01 | 0.51 | 0.11 | 98 | 1012.2 |
| 20260904151823 | 53 | 337 | 3.0 | 7.0 | 0.02 | 0.51 | 0.11 | 98 | 1012.3 |
| 20260904150329 | 53 | 333 | 2.0 | 4.0 | 0.03 | 0.51 | 0.11 | 98 | 1012.3 |
| 20260904144822 | 53 | 317 | 1.0 | 3.0 | 0.03 | 0.51 | 0.11 | 98 | 1012.2 |